Content
SEND FEEDBACK

Daily
Averages
Monthly
Summary
United States of America

SOUTH LAKE TAHOE, CALIFORNIA


Home > North America > United States > California
Elevation: 6263 feet     Latitude: 38 53N     Longitude: 119 59W

WEATHER
 
SELECT A DAY
Number of Records: 174,420;   Date Range: 1/1/95 - 7/29/14
 
SHARE

PRINT THIS DATA

[ ← Previous Day ]
WEATHER ALMANAC - APRIL 20, 2013
[ Next Day → ]
[ °C ]   °F
Weather ElementAverageHighLow
Temperature46.6 °F64 °F (3:53 pm)28.9 °F (5:53 am)
Dewpoint24.6 °F33.1 °F (7:53 pm)6.1 °F (3:53 pm)
Humidity50.5 %82 % (3:53 am)10 % (3:53 pm)
Barometer30.12 in30.18 in (7:53 am)30.06 in (4:53 pm)
Wind Speed1.8 mph8.1 mph (3:53 pm)
Weather ElementAverage
Visibility10 mi
Wind DirectionNNE (13 °)

Weather ElementTotal
Precipitation---
Heating Degree Days18.6 (Base 65)
Averaged from 23 records on April 20, 2013
WEATHER CONDITIONS BREAKOUT
WIND DIRECTION BREAKOUT
WEATHER BY HOUR - APRIL 20, 2013
[ °C ]   °F
Local TimeTemperatureDewpointHumidityBarometerVisibilityWind DirectionWind SpeedGust SpeedPrecipitationEventsConditions
1:53 AM32.0 °F26.1 °F79 %30.16 in10.0 miCalmClear
2:53 AM32.0 °F26.1 °F79 %30.14 in10.0 miCalmClear
3:53 AM30.9 °F26.1 °F82 %30.14 in10.0 miCalmClear
4:53 AM30.0 °F24.1 °F79 %30.15 in10.0 miSouth (180°)4.6 mphClear
5:53 AM28.9 °F24.1 °F82 %30.16 in10.0 miCalmClear
6:53 AM28.9 °F24.1 °F82 %30.17 in10.0 miCalmClear
7:53 AM34.0 °F28.0 °F79 %30.18 in10.0 miCalmClear
8:53 AM44.1 °F28.0 °F53 %30.17 in10.0 miCalmClear
9:53 AM50.0 °F30.0 °F46 %30.16 in10.0 miENE (60°)5.8 mphClear
10:53 AM52.0 °F28.9 °F41 %30.15 in10.0 miCalmClear
11:53 AM57.0 °F26.1 °F30 %30.13 in10.0 miCalmClear
12:53 PM57.0 °F26.1 °F30 %30.12 in10.0 miVariable3.5 mphClear
1:53 PM60.1 °F19.0 °F20 %30.11 in10.0 miVariable3.5 mphClear
2:53 PM63.0 °F14.0 °F15 %30.09 in10.0 miVariable5.8 mphClear
3:53 PM64.0 °F6.1 °F10 %30.07 in10.0 miNNE (30°)8.1 mphClear
4:53 PM63.0 °F10.9 °F13 %30.06 in10.0 miNNE (20°)4.6 mphClear
5:53 PM62.1 °F15.1 °F16 %30.06 in10.0 miNorth (10°)5.8 mphClear
6:53 PM55.0 °F26.1 °F33 %30.09 in10.0 miCalmClear
7:53 PM52.0 °F33.1 °F49 %30.10 in10.0 miCalmClear
8:53 PM48.9 °F32.0 °F52 %30.10 in10.0 miCalmClear
9:53 PM45.0 °F32.0 °F60 %30.11 in10.0 miCalmClear
10:53 PM42.1 °F30.9 °F65 %30.13 in10.0 miCalmClear
11:53 PM39.0 °F28.9 °F67 %30.11 in10.0 miCalmClear
Hourly data recorded from KTVL, located miles away from South Lake Tahoe, California







STORIES FROM OUR PARTNERS